Regional Weather Roundup
Issued by NWS

Home | Current Version | Previous Version | Text Only | Print | Product List | Glossary Off
Versions: 1 2 3 4 5 6 7 8 9 10 11 12 13 14 15 16 17 18 19 20 21 22 23 24 25 26 27 28 29 30 31 32 33 34 35 36 37 38 39 40 41 42 43 44 45 46 47 48 49 50

000
ASUS43 KDMX 251207
RWRIA

WEATHER ROUNDUP FOR IOWA
NATIONAL WEATHER SERVICE DES MOINES IA
700 AM CDT SAT APR 25 2015

NOTE: "FAIR" INDICATES FEW OR NO CLOUDS BELOW 12,000 FEET WITH NO
SIGNIFICANT WEATHER AND/OR OBSTRUCTIONS TO VISIBILITY.

* - THESE STATIONS ARE NOT NWS STATIONS...THUS NOT UNDER NWS
QUALITY CONTROL.  THEY ALSO DO NOT REPORT WEATHER SUCH
AS PRECIPITATION OR FOG.

IAZ001>003-012>014-020>022-031>034-043>046-251300-
   NORTHWEST IOWA

CITY           SKY/WX    TMP DP  RH WIND       PRES   REMARKS
CARROLL *      MIX PCPN  43  43 100 E17       29.59S
CHEROKEE *     CLOUDY    44  42  94 NE13G22   29.64R FOG
DENISON *      LGT RAIN  45  45 100 NE18G25   29.56R
LE MARS *      CLOUDY    46  43  87 NE15G24   29.64R
ORANGE CITY *  CLOUDY    43  39  87 E16G23    29.64R
SHELDON *      CLOUDY    45  43  93 E17G26    29.65R
SIOUX CITY     CLOUDY    48  43  82 E18G24    29.59R
6HR MIN TEMP:  47; 6HR MAX TEMP:  56; 6HR PCP: TRACE;

SPENCER        CLOUDY    44  39  82 E20       29.67R HAZE
6HR MIN TEMP:  44; 6HR MAX TEMP:  47;

STORM LAKE *   FOG       43  41  93 E20       29.64R VSB 1
$$

IAZ055>058-069>071-079>083-090>094-251300-
   SOUTHWEST IOWA

CITY           SKY/WX    TMP DP  RH WIND       PRES   REMARKS
ATLANTIC *     CLOUDY    48  48 100 NE14G25   29.51F FOG
AUDUBON *      RAIN      45  43  93 E14       29.57R
CLARINDA *     CLOUDY    54  54 100 E13       29.48R
COUNCIL BLFS * CLOUDY    50  50 100 E16G29    29.50R
CRESTON *      CLOUDY    50  50 100 E17       29.49F FOG
HARLAN  *      RAIN      46  46 100 E15G23    29.56R
LAMONI         CLOUDY    53  50  89 NE13      29.47F
6HR MIN TEMP:  53; 6HR MAX TEMP:  57; 6HR PCP:  0.03;

RED OAK *      LGT RAIN  54  54 100 NE17G25   29.48R
SHENANDOAH *   CLOUDY    55  55 100 E15G22    29.46R
$$

IAZ047>049-059>061-072>074-084-251300-
   CENTRAL IOWA

CITY           SKY/WX    TMP DP  RH WIND       PRES   REMARKS
AMES           RAIN      43  41  93 E13       29.64R FOG
6HR MIN TEMP:  43; 6HR MAX TEMP:  47; 6HR PCP:  0.20;

ANKENY *       LGT RAIN  45  45 100 NE13G20   29.60R
CHARITON *     CLOUDY    48  48 100 E14       29.55S FOG
DES MOINES     HVY RAIN  46  43  89 E16G24    29.59S FOG
6HR MIN TEMP:  46; 6HR MAX TEMP:  51; 6HR PCP:  0.28;

GRINNELL*      LGT RAIN  43  41  93 E23G32    29.61F
KNOXVILLE *    CLOUDY    45  43  93 E17       29.57R FOG
MARSHALLTOWN   LGT RAIN  42  39  89 E21       29.63F FOG
6HR MIN TEMP:  42; 6HR MAX TEMP:  46; 6HR PCP: TRACE;

PELLA *        RAIN      43  43 100 E12G20    29.62R
PERRY *        LGT RAIN  44  44  98 E16       29.59R
$$

IAZ004>006-015-016-023>025-035-036-251300-
   NORTH CENTRAL IOWA

CITY           SKY/WX    TMP DP  RH WIND       PRES   REMARKS
ALGONA *       CLOUDY    43  39  87 E16G25    29.69R FOG
CLARION *      CLOUDY    43  41  93 E20G26    29.67R
ESTHERVILLE    CLOUDY    41  38  89 E17G38    29.69R FOG
6HR MIN TEMP:  41; 6HR MAX TEMP:  45;

FORT DODGE *   CLOUDY    43  37  81 E18G25    29.66R
MASON CITY     CLOUDY    41  37  86 E20G25    29.72R
6HR MIN TEMP:  41; 6HR MAX TEMP:  44;

FOREST CITY *  CLOUDY    39  36  87 E14G20    29.71R WCI  31
IOWA FALLS *   CLOUDY    42  38  85 E18       29.68R
$$

IAZ007>011-017>019-026>030-037>042-050>054-066-251300-
   NORTHEAST IOWA

CITY           SKY/WX    TMP DP  RH WIND       PRES   REMARKS
CEDAR RAPIDS   CLOUDY    42  41  96 E22G29    29.67R
6HR MIN TEMP:  41; 6HR MAX TEMP:  44; 6HR PCP: TRACE;

CHARLES CITY * CLOUDY    41  39  93 E18       29.72F
CLINTON *      CLOUDY    43  37  81 E20       29.74F
DECORAH *      CLOUDY    41  36  81 E14G21    29.76S
DUBUQUE        CLOUDY    42  36  79 E15       29.73S
6HR MIN TEMP:  41; 6HR MAX TEMP:  42;

MONTICELLO *   CLOUDY    43  39  87 E12G17    29.72R
OELWEIN *      CLOUDY    41  37  87 E16       29.71S
WATERLOO       CLOUDY    43  37  79 E16       29.70R
6HR MIN TEMP:  42; 6HR MAX TEMP:  44;

$$

IAZ064-065-067-068-078-251300-
   EAST CENTRAL IOWA

CITY           SKY/WX    TMP DP  RH WIND       PRES   REMARKS
DAVENPORT      RAIN      43  40  89 E14       29.70R FOG
6HR MIN TEMP:  41; 6HR MAX TEMP:  43; 6HR PCP:  0.30;

IOWA CITY      LGT RAIN  43  41  93 E14       29.68S FOG
6HR MIN TEMP:  43; 6HR MAX TEMP:  48; 6HR PCP:  0.14;

MT. PLEASANT * LGT RAIN  45  45  99 E16       29.61R
MUSCATINE *    LGT RAIN  45  41  87 E16       29.66R
QUAD CITIES    RAIN      43  40  89 E20G29    29.69R FOG
6HR MIN TEMP:  42; 6HR MAX TEMP:  46; 6HR PCP:  0.36;

$$

IAZ062-063-075>077-085>089-095>099-251300-
   SOUTHEAST IOWA

CITY           SKY/WX    TMP DP  RH WIND       PRES   REMARKS
BURLINGTON     LGT RAIN  47  47 100 E16       29.61R
6HR MIN TEMP:  47; 6HR MAX TEMP:  54; 6HR PCP:  0.07;

FAIRFIELD *    LGT RAIN  45  43  93 E15G25    29.59S
FORT MADISON * DRIZZLE   46  45  93 NE15      29.58F
KEOKUK *       CLOUDY    50  50 100 NE12G17   29.55F
OSKALOOSA *    LGT RAIN  42  41  95 NE14      29.62R
CENTERVILLE *  LGT RAIN  50  50 100 E8        29.57R
OTTUMWA        HVY RAIN  45  43  93 E15       29.60R FOG
6HR MIN TEMP:  45; 6HR MAX TEMP:  52; 6HR PCP:  0.30;

WASHINGTON *   LGT RAIN  45  45 100 E18       29.62S
$$

ABBREVIATIONS USED IN REMARKS
   TC - TEMPERATURES IN CELSIUS
  WCI - WIND CHILL INDEX
   HX - HEAT INDEX
  VSB - VISIBILITY
$$




USA.gov is the U.S. government's official web portal to all federal, state and local government web resources and services.